Flag Weather past 2 weeks in Villavicencio, Colombia

Now
64 °F

Partly sunny.


Feels Like: 64 °F
Forecast: 63 / 89 °F
Wind: 6 mph from East

Location: Bogota / Eldorado

Current Time: Nov 24, 2014 at 11:41:40 AM

Latest Report: Nov 24, 2014 at 11:00 AM


Visibility: N/A

Pressure: 30.32 "Hg

Humidity: 49%

Dew point: 45 °F

Location of VillavicencioLocation

Historic Weather in Villavicencio — Graph

°F

Villavicencio temperature yesterday

Maximum temperature yesterday: 70 °F (at 1:00 PM)
Minimum temperature yesterday: 48 °F (at 5:00 AM)
Average temperature yesterday: 59 °F

Past Weeks' High & Low Weather Summary

 TemperatureHumidityPressure
High82 °F (Nov 16, 8:00 AM)100% (Nov 10, 5:00 AM)30.76 "Hg (Nov 10, 5:00 AM)
Low41 °F (Nov 15, 6:00 AM)43% (Nov 18, 10:00 AM)29.93 "Hg (Nov 16, 8:00 AM)
Average57 °F80%30.30 "Hg
* Reported Nov 9 10:00 AM — Nov 24 10:00 AM, Villavicencio, Weather by CustomWeather, © 2014

Note: Actual official high and low records may vary slightly from our data, if they occured in-between our weather recording intervals... More about our weather records

Advertising

Villavicencio weather history for previous 24 hours

 ConditionsComfort  
Time TempWeatherWind HumidityBarometerVisibility
10:00 AM
Nov 24
64 °FPartly sunny.9 mph56%30.34 "HgN/A
9:00 AM61 °FPartly sunny.12 mph63%30.34 "HgN/A
8:00 AM59 °FScattered showers. Partly sunny.9 mph72%30.33 "HgN/A
7:00 AM55 °FScattered showers. Overcast.6 mph82%30.30 "HgN/A
6:00 AM54 °FPartly sunny.7 mph88%30.27 "HgN/A
5:00 AM54 °FPassing clouds.6 mph88%30.26 "HgN/A
4:00 AM52 °FPassing clouds.5 mph94%30.25 "HgN/A
3:00 AM52 °FPassing clouds.5 mph88%30.25 "HgN/A
2:00 AM54 °FPassing clouds.6 mph88%30.26 "HgN/A
1:00 AM55 °FPassing clouds.2 mph77%30.28 "HgN/A
12:00 AM54 °FPassing clouds.2 mph82%30.30 "HgN/A
11:00 PM
Nov 23
52 °FPassing clouds.3 mph82%30.30 "HgN/A
10:00 PM52 °FPassing clouds.7 mph82%30.31 "HgN/A
9:00 PM54 °FPassing clouds.3 mph77%30.30 "HgN/A
8:00 PM55 °FPassing clouds.6 mph72%30.27 "HgN/A
7:00 PM61 °FPassing clouds.5 mph59%30.24 "HgN/A
6:00 PM63 °FPassing clouds.7 mph59%30.21 "HgN/A
5:00 PM66 °FPassing clouds.7 mph52%30.19 "HgN/A
4:00 PM68 °FPassing clouds.10 mph49%30.19 "HgN/A
3:00 PM68 °FScattered clouds.14 mph49%30.21 "HgN/A
2:00 PM70 °FScattered clouds.15 mph43%30.22 "HgN/A
1:00 PM70 °FScattered clouds.17 mph50%30.26 "HgN/A
12:00 PM68 °FScattered clouds.9 mph49%30.29 "HgN/A
11:00 AM68 °FScattered clouds.9 mph46%30.32 "HgN/A
Weather by CustomWeather, © 2014

See weather overviewHow to use our weather pages